Regional Weather Roundup
Issued by NWS

Home | Current Version | Previous Version | Text Only | Print | Product List | Glossary On
Versions: 1 2 3 4 5 6 7 8 9 10 11 12 13 14 15 16 17 18 19 20 21 22 23 24 25 26 27 28 29 30 31 32 33 34 35 36 37 38 39 40 41 42 43 44 45 46 47 48 49 50
000
ASUS43 KMKX 031200
RWRWI

WISCONSIN REGIONAL WEATHER ROUNDUP
NATIONAL WEATHER SERVICE MILWAUKEE/SULLIVAN WI
700 AM CDT SUN MAY 03 2015

NOTE: "FAIR" INDICATES FEW OR NO CLOUDS BELOW 12,000 FEET WITH NO
SIGNIFICANT WEATHER AND/OR OBSTRUCTIONS TO VISIBILITY.

WIZ001-002-006>008-014>016-023>028-031300-
NORTHWEST WISCONSIN

CITY           SKY/WX    TMP DP  RH WIND       PRES   REMARKS
SUPERIOR ARPT  CLOUDY    55  50  82 W7        29.71R
ASHLAND        CLOUDY    62  51  67 S15G23    29.74F
6HR MIN TEMP:  62; 6HR MAX TEMP:  65;

HAYWARD        PTSUNNY   58  49  72 S9        29.79F
6HR MIN TEMP:  58; 6HR MAX TEMP:  67;

SIREN          PTSUNNY   59  51  74 SE7       29.77F
CUMBERLAND     MOSUNNY   50  46  87 SE6       29.81R
RICE LAKE      MOSUNNY   53  47  81 CALM      29.83R
CHETEK         MOSUNNY   53  49  86 CALM      29.82R
LADYSMITH      MOSUNNY   51  47  89 CALM      29.84R
EAU CLAIRE     NOT AVBL
MENOMONIE      CLOUDY    58  49  72 CALM      29.81R
NEW RICHMOND   MOCLDY    53  47  81 CALM      29.80S
OSCEOLA        MOCLDY    55  49  82 CALM      29.82R
$$

WIZ003>005-009-010-017-018-031300-
NORTH CENTRAL WISCONSIN

CITY           SKY/WX    TMP DP  RH WIND       PRES   REMARKS
MANITOWISH WTR MOSUNNY   56  49  77 SW10      29.82R
ARBOR VITAE    SUNNY     57  51  81 SW5       29.83R
WOODRUFF       SUNNY     57  51  81 SW5       29.83R
RHINELANDER    SUNNY     56  48  74 SW8       29.85R
6HR MIN TEMP:  54; 6HR MAX TEMP:  62;

EAGLE RIVER    SUNNY     55  47  74 S3        29.83R
LAND O LAKES   SUNNY     56  48  74 S5        29.82S
PHILLIPS       PTSUNNY   54  49  81 SW6       29.82R
TOMAHAWK       SUNNY     49  47  91 CALM      29.84S
MEDFORD        SUNNY     54  49  82 S6        29.83S
MERRILL        SUNNY     55  49  80 SW3       29.84S
$$

WIZ029-030-035-036-043>047-031300-
CENTRAL WISCONSIN

CITY           SKY/WX    TMP DP  RH WIND       PRES   REMARKS
WAUSAU         SUNNY     56  50  80 S7        29.84R
6HR MIN TEMP:  55; 6HR MAX TEMP:  62;

MOSINEE        SUNNY     54  50  87 S6        29.87R
MARSHFIELD     SUNNY     55  50  83 S7        29.84S
6HR MIN TEMP:  50; 6HR MAX TEMP:  61;

STEVENS POINT  SUNNY     52  47  84 S5        29.86S
WAUPACA        SUNNY     55  47  76 CALM      29.88S
WAUTOMA        NOT AVBL
WISC RAPIDS    SUNNY     57  48  72 S8        29.87R
6HR MIN TEMP:  52; 6HR MAX TEMP:  60;

CAMP DOUGLAS   NOT AVBL
$$

WIZ011>013-019>022-031-037>040-048>050-031300-
NORTHEAST WISCONSIN

CITY           SKY/WX    TMP DP  RH WIND       PRES   REMARKS
ANTIGO         SUNNY     53  48  85 SW7       29.86R
SHAWANO        SUNNY     57  47  69 S3        29.87S
OCONTO         SUNNY     56  48  74 SW3       29.87R
STURGEON BAY   SUNNY     57  46  67 SW9       29.91R
6HR MIN TEMP:  54; 6HR MAX TEMP:  57;

GREEN BAY      MOSUNNY   56  48  74 S6        29.89R
6HR MIN TEMP:  53; 6HR MAX TEMP:  60;

MANITOWOC      NOT AVBL
APPLETON       MOSUNNY   55  46  71 SW8       29.90R
CLINTONVILLE   MOSUNNY   52  45  76 S5        29.87S
OSHKOSH        SUNNY     57  48  72 S12       29.89S
6HR MIN TEMP:  52; 6HR MAX TEMP:  60;

$$

WIZ032>034-041-042-053>061-031300-
SOUTHWEST WISCONSIN

CITY           SKY/WX    TMP DP  RH WIND       PRES   REMARKS
LA CROSSE      PTSUNNY   62  51  67 S8        29.81S
6HR MIN TEMP:  59; 6HR MAX TEMP:  64;

SPARTA         MOSUNNY   60  47  64 S5        29.84S
VIROQUA        PTSUNNY   58  49  72 S12       29.84F
BOSCOBEL       CLOUDY    62  49  62 VRB5      29.86S
6HR MIN TEMP:  51; 6HR MAX TEMP:  63;

PRAIRIE DU CHI CLOUDY    60  47  62 E6        29.85S
PLATTEVILLE    CLOUDY    60  49  67 SE12      29.88F
$$

WIZ056-057-062-063-064-067-068-031300-
SOUTH CENTRAL WISCONSIN

CITY           SKY/WX    TMP DP  RH WIND       PRES   REMARKS
REEDSBURG      PTSUNNY   59  49  69 S8        29.87S
BARABOO/DELLS  NOT AVBL
LONE ROCK      NOT AVBL
MINERAL POINT  CLOUDY    59  50  72 S10       29.89S
MADISON        CLOUDY    60  47  61 S12       29.91S
6HR MIN TEMP:  58; 6HR MAX TEMP:  63;

MIDDLETON      PTSUNNY   60  46  59 S7        29.90F
WATERTOWN      SUNNY     56  47  71 S5        29.92R
MONROE         CLOUDY    57  46  67 S14       29.92R
JANESVILLE     PTSUNNY   61  46  59 S7        29.93S
$$

WIZ051-052-058>065-066-070>072-031300-
SOUTHEAST WISCONSIN

CITY           SKY/WX    TMP DP  RH WIND       PRES   REMARKS
MILWAUKEE      PTSUNNY   59  42  53 S6        29.94S
6HR MIN TEMP:  58; 6HR MAX TEMP:  60;

WAUKESHA       PTSUNNY   55  43  62 S5        29.95S
MILWAUKEE/TIMM PTSUNNY   57  45  62 S5        29.95S
RACINE         PTSUNNY   59  42  53 S5        29.97R
6HR MIN TEMP:  56; 6HR MAX TEMP:  62;

BURLINGTON     PTSUNNY   54  42  65 SW3       29.95S
KENOSHA        MOSUNNY   59  43  55 S6        29.96R
6HR MIN TEMP:  55; 6HR MAX TEMP:  60;

FOND DU LAC    SUNNY     59  47  64 S12       29.91R
6HR MIN TEMP:  55; 6HR MAX TEMP:  61;

SHEBOYGAN      CLOUDY    57  48  72 S8        29.92R
6HR MIN TEMP:  49; 6HR MAX TEMP:  57;

WEST BEND      MOSUNNY   57  46  67 S7        29.92S
JUNEAU         SUNNY     55  47  74 S8        29.93R
$$

LSZ147-162-031300-
LAKE SUPERIOR

STATION/POSITION TIME  TEMP    WIND        PRES    WAVE
                       AIR SEA DIR/SP/G            HT/PER
                 (UTC) (F)     (DEG/KT/KT) (MB)    (FT/S)
W MID LAKE BUOY  1050   44 35  220/ 12/ 12 1006.6R   1/ 3
DEVILS ISLAND    1100          280/  5/  5 1006.7R
PORT WING        1120          200/  6/ 23 1006.4R
SAXON HARBOR     1100   64     200/ 10/ 18 1007.1R
$$

LMZ867-665-643>646-031300-
LAKE MICHIGAN

STATION/POSITION TIME  TEMP    WIND        PRES    WAVE
                       AIR SEA DIR/SP/G            HT/PER
                 (UTC) (F)     (DEG/KT/KT) (MB)    (FT/S)
CHAMBERS ISLAND  1100   56     180/  6/ 15 1011.5R
NORTHPORT PIER   1100   52     160/  3/  6 1011.2R
SISTER BAY       1102   62     230/ 14/ 19   N/A
KEWAUNEE LAKESHO 1100   53     220/  5/  8 1011.2R
SHEBOYGAN LAKESH 1100   56     200/  6/  6 1013.4R
PORT WASHINGTON  1140   52     180/  3/  8 1014.2R
ATWATER BUOY     1100   52     170/  8/  8 1015.0S
MILWAUKEE LAKESH 1100   60     220/  7/  8   N/A
KENOSHA   LAKESH 1100   54     180/  9/ 10 1014.2S
$$

TC  - TEMPERATURE IN CELSIUS
VSB - VISIBILITY IN STATUTE MILES
WCI - WIND CHILL INDEX
HX  - HEAT INDEX



USA.gov is the U.S. government's official web portal to all federal, state and local government web resources and services.